Regional Weather Roundup
Issued by NWS

Home | Current Version | Previous Version | Graphics & Text | Print | Product List | Glossary On
Versions: 1 2 3 4 5 6 7 8 9 10 11 12 13 14 15 16 17 18 19 20 21 22 23 24 25 26 27 28 29 30 31 32 33 34 35 36 37 38 39 40 41 42 43 44 45 46 47 48 49 50
000
ASUS43 KIND 311659
RWRIN

WEATHER ROUNDUP FOR INDIANA
NATIONAL WEATHER SERVICE INDIANAPOLIS IN
100 PM EDT TUE MAY 31 2016

NOTE: "FAIR" INDICATES FEW OR NO CLOUDS BELOW 12,000 FEET WITH NO
SIGNIFICANT WEATHER AND/OR OBSTRUCTIONS TO VISIBILITY.

* - STATION DOES NOT REPORT WEATHER SUCH AS PRECIPITATION OR FOG.

+ - STATION NOT QUALITY CONTROLLED BY THE NATIONAL WEATHER SERVICE.
    USE DATA WITH CAUTION...ESPECIALLY DEWPOINT AND RELATIVE
    HUMIDITY OBSERVATIONS.

INZ001>003-010>013-019-020-311800-
NORTHWEST INDIANA

CITY           SKY/WX    TMP DP  RH WIND       PRES   REMARKS
GARY /AIRPORT/ PTSUNNY   79  66  65 E13       30.00R
RENSSELAER +   MOSUNNY   86  52  30 SE8G17    29.98S

$$

LMZ046-743>745-311800-
SOUTHERN LAKE MICHIGAN

STATION/POSITION TIME  TEMP    WIND        PRES    WAVE
                       AIR SEA DIR/SP/G            HT
                 (UTC) (F)     (DEG/KT/KT) (MB)    (FT)
BURNS HARBOR     1600   67      40/  8/ 15 1016.3S
MICHIGAN CITY    1600   72      10/  9/ 10   N/A
5NW MICH CITY    1600   66 62   40/  8/ 10   N/A     0

$$

INZ004-005-014>016-021>024-311800-
NORTH CENTRAL INDIANA

CITY           SKY/WX    TMP DP  RH WIND       PRES   REMARKS
ELKHART        PTSUNNY   81  57  44 SE10      30.02S
GOSHEN         PTSUNNY   82  52  35 SE9       30.02S
SOUTH BEND     CLOUDY    79  55  43 MISG        N/A

$$

INZ006>009-017-018-025>027-311800-
NORTHEAST INDIANA

CITY           SKY/WX    TMP DP  RH WIND       PRES   REMARKS
ANGOLA *+        N/A     81  46  30 SE6       30.03S
FORT WAYNE     PTSUNNY   82  54  37 E9        30.02F

$$

INZ028-029-035-036-043>045-051>053-311800-
WEST CENTRAL INDIANA

CITY           SKY/WX    TMP DP  RH WIND       PRES   REMARKS
CRAWFORDSVL +  MOSUNNY   84  55  36 SE5G17    29.99S
GREENCASTLE +  MOSUNNY   82  64  54 S12       30.01S
LAFAYETTE      SUNNY     84  58  40 S6        29.97F
TERRE HAUTE    SUNNY     85  60  42 S10       29.99S

$$

INZ030>032-037>040-046>048-054>057-064-065-311800-
CENTRAL INDIANA

CITY           SKY/WX    TMP DP  RH WIND       PRES   REMARKS
COLUMBUS       PTSUNNY   82  59  44 S5        30.00S
INDIANAPOLIS   PTSUNNY   84  57  39 S9        29.99S
-EAGLE CREEK   MOSUNNY   85  56  37 VRB5      29.99S
KOKOMO *+      MOSUNNY   84  57  39 SE12      29.99S
SHELBYVILLE    MOSUNNY   88  52  29 SW3       29.98F

$$

INZ033-034-041-042-049-050-058-059-311800-
EAST CENTRAL INDIANA

CITY           SKY/WX    TMP DP  RH WIND       PRES   REMARKS
MUNCIE         MOSUNNY   86  55  34 SE3       30.00F

$$

INZ060-061-067>069-081>083-085>088-311800-
SOUTHWEST INDIANA

CITY           SKY/WX    TMP DP  RH WIND       PRES   REMARKS
EVANSVILLE     SUNNY     86  59  39 SE9       29.98F
HUNTINGBURG *+ MOSUNNY   84  61  45 E13       29.99S

$$

INZ062-063-066-070>080-084-089>092-311800-
SOUTH CENTRAL AND SOUTHEAST INDIANA

CITY           SKY/WX    TMP DP  RH WIND       PRES   REMARKS
BLOOMINGTON    CLOUDY    82  61  48 SE6       30.01R
MADISON *+     CLOUDY    82  50  32 E5        30.03S
SEYMOUR +      CLOUDY    88  57  35 S7        29.99F

$$





USA.gov is the U.S. government's official web portal to all federal, state and local government web resources and services.